Погода в Кулунде

Россия / Алтайский край     52°33′58″N   78°56′13″E
темп.,
°C
ветер,
м/с
пор.,
м/с
влажн.,
%
обл.,
%
осадки,
мм/ч
давл.,
гПа
погр.,
м
8 марта, пн
пн801:00−5ю6129399 0.0 1018236
04:00−6ю5119095 0.0 1016229
07:00−6ю6118698 0.0 1014253
10:00−6ю71383100 0.0 1011314
13:00−2ююз91679100 0.0 1009579
16:00+1юз81590100 0.0 1008964
19:000зюз71298100 0.8 1011756
22:00−8зсз6128898 0.4 1018406
9 марта, вт
вт901:00−14з5109358 0.4 1024181
04:00−16зюз459127 0.0 102681
07:00−16ююз589436 0.0 1028131
10:00−14ююз6108920 0.0 1028258
13:00−10ююз6108327 0.0 1027354
16:00−7ююз59783 0.0 1026427
19:00−10ююз468536 0.0 102493
22:00−12ююз448960 0.0 102447
10 марта, ср
ср1001:00−13ююз449159 0.0 102250
04:00−13ююз349350 0.0 102145
07:00−13ю238975 0.0 102021
10:00−11ююв349196 0.0 101890
13:00−7юв478698 0.0 1015279
16:000ююв71292100 0.0 1010554
19:00+1ю81691100 0.1 1005589
22:00+2ю81692100 0.4 1003526
11 марта, чт
чт1101:00+2юз91797100 0.6 1005689
04:00−7зюз8168797 0.0 1009555
07:00−10зюз7138896 0.0 1013343
10:00−9юз71487100 0.0 1015445
13:00−7зюз71285100 0.0 1017729
16:00−6юз6108240 0.0 1018752
19:00−8ю5108435 0.0 1018211
22:00−5ююв81875100 0.0 1015470
12 марта, пт
пт1201:00−3юз111692100 0.2 10141016
04:00−9зюз71580100 0.1 1016730
07:00−14зюз5138767 0.1 1018338
10:00−14юз613870 0.0 1020595
13:00−14зюз811826 0.0 1021742
16:00−13зюз698369 0.0 1021746
19:00−15зюз5108981 0.0 1021362
22:00−17зюз5119498 0.0 1024372